Skip Page Navigation
NASA JPL Caltech
NASA Logo - Jet Propulsion Laboratory + View the NASA Portal
+ Center for Near-Earth Object Studies
JPL Home Earth Solar System Stars & Galaxies Technology
JPL Solar System Dynamics
BODIES ORBITS EPHEMERIDES TOOLS PHYSICAL DATA DISCOVERY FAQ SITE MAP
IMPORTANT: The SSD Announcement email list is now available. Major changes are coming in the near future, including possible hostname and/or URL changes. To be notified of such changes, subscribe to this email list.

Please visit this page for more details.


JPL Small-Body Database Browser
Search: [ help ]  
(2014 MA6)
Classification: Apollo [NEO]          SPK-ID: 3673918
Ephemeris | Orbit Diagram | Orbital Elements | Mission Design | Physical Parameters | Close-Approach Data ]

[ hide orbit diagram ]

For accurate long-term ephemerides, please instead use our Horizons system.This orbit viewer was implemented using two-body methods, and hence should not be used for determining accurate long-term trajectories (over several years or decades) or planetary encounter circumstances.


[ revert to old Java-based viewer ]

Orbital Elements at Epoch 2459000.5 (2020-May-31.0) TDB
Reference: JPL 25 (heliocentric ecliptic J2000)
 Element Value Uncertainty (1-sigma)   Units 
e .2124971417144807 9.9157e-06  
a 1.265452244623778 1.5338e-05 au
q .9965472596650514 4.7002e-07 au
i 3.178479919500262 0.00013367 deg
node 242.56343639716 0.00011339 deg
peri 86.26065285629122 0.00020504 deg
M 21.84981843433689 0.02629 deg
tp 2458968.941787275507
(2020-Apr-29.44178728)
0.037398 TDB
period 519.9565669142523
1.42
0.0094529
2.588e-05
d
yr
n .692365522252109 1.2587e-05 deg/d
Q 1.534357229582505 1.8597e-05 au
  Orbit Determination Parameters
   # obs. used (total)      95  
   data-arc span      161 days  
   first obs. used      2014-06-21  
   last obs. used      2014-11-29  
   planetary ephem.      DE431  
   SB-pert. ephem.      SB431-N16  
   condition code      5  
   norm. resid. RMS      .38702  
   source      ORB  
   producer      Otto Matic  
   solution date      2017-Apr-06 08:40:00  

Additional Information
 Earth MOID = .0460855 au 
 Jupiter MOID = 3.7637 au 
 T_jup = 5.074 
[ show covariance matrix ]

Ephemeris | Orbit Diagram | Orbital Elements | Mission Design | Physical Parameters | Close-Approach Data ]

Physical Parameter Table
Parameter Symbol Value Units Sigma Reference Notes
absolute magnitude H 24.5   n/a MPO317923  

[ show close-approach data ]
Ephemeris | Orbit Diagram | Orbital Elements | Mission Design | Physical Parameters | Close-Approach Data ]
ABOUT SSD CREDITS/AWARDS PRIVACY/COPYRIGHT GLOSSARY LINKS
FirstGov 2020-Feb-22 01:45 UT
(server date/time)  
NASA Home Page
Site Manager:   Ryan S. Park
Webmaster  Alan B. Chamberlin